RYR4546 EPKK-EPMO

Flight info

Callsign RYR4546
Flight time 0h 33m
Altitude 25000
Route POBOK M985 KOTEK M866 LOGDA
Aircraft B738/M-SDE2E3FGHIRWXY/LB1

Departure

Time 2026-05-06 18:28
Airport Kraków John Paul II International Airport (EPKK)

Arrival

Time 2026-05-06 19:02
Airport Warsaw Modlin Airport (EPMO)
Time Latitude Longitude Altitude Speed Heading
2026-05-06 17:57 50.07500 19.80275 789 ft 0 kts 170°
2026-05-06 18:19 50.07499 19.80275 789 ft 0 kts 170°
2026-05-06 18:19 50.07481 19.80280 789 ft 8 kts 169°
2026-05-06 18:19 50.07452 19.80323 789 ft 4 kts 100°
2026-05-06 18:20 50.07461 19.80364 789 ft 3 kts 46°
2026-05-06 18:20 50.07513 19.80399 789 ft 13 kts 18°
2026-05-06 18:20 50.07626 19.80411 789 ft 20 kts 347°
2026-05-06 18:20 50.07773 19.80361 789 ft 17 kts 347°
2026-05-06 18:21 50.07811 19.80348 789 ft 0 kts 353°
2026-05-06 18:22 50.07812 19.80348 789 ft 1 kts 352°
2026-05-06 18:22 50.07832 19.80341 789 ft 5 kts 347°
2026-05-06 18:22 50.07833 19.80340 789 ft 0 kts 347°
2026-05-06 18:25 50.07843 19.80337 789 ft 0 kts 347°
2026-05-06 18:26 50.07865 19.80329 789 ft 8 kts 347°
2026-05-06 18:27 50.07948 19.80299 788 ft 17 kts 346°
2026-05-06 18:27 50.08011 19.80206 788 ft 0 kts 267°
2026-05-06 18:27 50.08008 19.80168 788 ft 0 kts 262°
2026-05-06 18:28 50.08007 19.80161 789 ft 10 kts 261°
2026-05-06 18:28 50.07921 19.79555 789 ft 102 kts 258°
2026-05-06 18:28 50.07746 19.78068 859 ft 166 kts 257°
2026-05-06 18:28 50.07467 19.76150 1511 ft 193 kts 259°
2026-05-06 18:29 50.07168 19.74035 2320 ft 212 kts 256°
2026-05-06 18:29 50.06825 19.71665 2675 ft 233 kts 255°
2026-05-06 18:29 50.06461 19.69136 3088 ft 246 kts 255°
2026-05-06 18:29 50.06260 19.66441 3549 ft 259 kts 273°
2026-05-06 18:30 50.07009 19.63874 4020 ft 274 kts 309°
2026-05-06 18:30 50.08672 19.62304 4518 ft 294 kts 342°
2026-05-06 18:30 50.10773 19.61949 5006 ft 316 kts
2026-05-06 18:30 50.12898 19.63088 5538 ft 335 kts 34°
2026-05-06 18:31 50.14745 19.65406 6114 ft 346 kts 41°
2026-05-06 18:31 50.16597 19.67835 6583 ft 348 kts 40°
2026-05-06 18:31 50.18445 19.70255 7062 ft 347 kts 40°
2026-05-06 18:31 50.20302 19.72676 7555 ft 348 kts 40°
2026-05-06 18:32 50.22166 19.75095 8053 ft 350 kts 40°
2026-05-06 18:32 50.24048 19.77526 8552 ft 352 kts 40°
2026-05-06 18:32 50.25919 19.79938 9072 ft 354 kts 40°
2026-05-06 18:32 50.27829 19.82397 9584 ft 357 kts 40°
2026-05-06 18:33 50.29755 19.84877 10085 ft 359 kts 40°
2026-05-06 18:33 50.31691 19.87369 10570 ft 362 kts 40°
2026-05-06 18:33 50.33653 19.89897 11063 ft 364 kts 40°
2026-05-06 18:33 50.35610 19.92422 11568 ft 366 kts 40°
2026-05-06 18:34 50.37581 19.94967 12070 ft 368 kts 40°
2026-05-06 18:34 50.39535 19.97492 12582 ft 370 kts 39°
2026-05-06 18:34 50.41522 20.00064 13106 ft 372 kts 39°
2026-05-06 18:34 50.43523 20.02657 13637 ft 374 kts 39°
2026-05-06 18:35 50.45541 20.05275 14106 ft 377 kts 39°
2026-05-06 18:35 50.47571 20.07904 14588 ft 380 kts 38°
2026-05-06 18:35 50.49790 20.10170 15060 ft 382 kts 26°
2026-05-06 18:35 50.52207 20.11951 15584 ft 387 kts 23°
2026-05-06 18:36 50.54690 20.13724 16089 ft 396 kts 23°
2026-05-06 18:36 50.57214 20.15544 16611 ft 401 kts 24°
2026-05-06 18:36 50.59745 20.17413 17129 ft 403 kts 24°
2026-05-06 18:36 50.62285 20.19310 17647 ft 405 kts 24°
2026-05-06 18:37 50.64839 20.21225 18177 ft 408 kts 24°
2026-05-06 18:37 50.67406 20.23151 18644 ft 410 kts 24°
2026-05-06 18:37 50.69983 20.25083 19158 ft 410 kts 24°
2026-05-06 18:37 50.72549 20.27009 19903 ft 407 kts 24°
2026-05-06 18:38 50.75102 20.28924 20639 ft 406 kts 24°
2026-05-06 18:38 50.77646 20.30833 21392 ft 404 kts 24°
2026-05-06 18:38 50.80181 20.32737 22164 ft 401 kts 24°
2026-05-06 18:38 50.82689 20.34624 22968 ft 399 kts 24°
2026-05-06 18:39 50.85186 20.36504 23708 ft 395 kts 24°
2026-05-06 18:39 50.87651 20.38362 24380 ft 392 kts 24°
2026-05-06 18:39 50.90134 20.40234 24729 ft 400 kts 24°
2026-05-06 18:40 50.95363 20.43968 24825 ft 425 kts 22°
2026-05-06 18:40 50.98119 20.45841 24827 ft 438 kts 21°
2026-05-06 18:40 51.00959 20.47766 24831 ft 450 kts 22°
2026-05-06 18:40 51.03879 20.49756 24825 ft 460 kts 22°
2026-05-06 18:41 51.06845 20.51792 24821 ft 467 kts 22°
2026-05-06 18:41 51.09794 20.53830 24807 ft 467 kts 22°
2026-05-06 18:41 51.12768 20.55895 24797 ft 464 kts 22°
2026-05-06 18:41 51.15723 20.57953 24801 ft 463 kts 22°
2026-05-06 18:42 51.18672 20.60012 24801 ft 462 kts 22°
2026-05-06 18:42 51.21612 20.62066 24799 ft 461 kts 22°
2026-05-06 18:42 51.24552 20.64123 24800 ft 461 kts 22°
2026-05-06 18:42 51.27495 20.66184 24801 ft 462 kts 22°
2026-05-06 18:43 51.30435 20.68245 24806 ft 462 kts 22°
2026-05-06 18:43 51.33393 20.70322 24685 ft 466 kts 22°
2026-05-06 18:43 51.36353 20.72402 24427 ft 463 kts 22°
2026-05-06 18:43 51.39286 20.74468 24195 ft 459 kts 22°
2026-05-06 18:44 51.42205 20.76527 23932 ft 458 kts 22°
2026-05-06 18:44 51.45125 20.78588 23573 ft 458 kts 22°
2026-05-06 18:44 51.48043 20.80651 23207 ft 458 kts 22°
2026-05-06 18:44 51.50947 20.82707 22790 ft 454 kts 22°
2026-05-06 18:45 51.53779 20.84716 22389 ft 447 kts 22°
2026-05-06 18:45 51.56604 20.86723 21993 ft 442 kts 22°
2026-05-06 18:45 51.59408 20.88717 21585 ft 441 kts 22°
2026-05-06 18:45 51.61311 20.90071 21228 ft 442 kts 22°
2026-05-06 18:46 51.65032 20.92722 20559 ft 441 kts 22°
2026-05-06 18:46 51.67823 20.94714 20131 ft 435 kts 22°
2026-05-06 18:46 51.70571 20.96680 19706 ft 429 kts 22°
2026-05-06 18:46 51.73288 20.98625 19299 ft 426 kts 22°
2026-05-06 18:47 51.75997 21.00567 18894 ft 425 kts 22°
2026-05-06 18:47 51.78692 21.02500 18492 ft 423 kts 22°
2026-05-06 18:47 51.81383 21.04433 18094 ft 421 kts 22°
2026-05-06 18:47 51.84053 21.06354 17637 ft 420 kts 22°
2026-05-06 18:48 51.86716 21.08273 17176 ft 418 kts 22°
2026-05-06 18:48 51.89376 21.10192 16654 ft 417 kts 22°
2026-05-06 18:48 51.92026 21.12106 16131 ft 415 kts 22°
2026-05-06 18:48 51.94650 21.14004 15637 ft 411 kts 22°
2026-05-06 18:49 51.97251 21.15888 15130 ft 407 kts 22°
2026-05-06 18:49 51.99827 21.17757 14645 ft 402 kts 22°
2026-05-06 18:49 52.02338 21.19580 14181 ft 399 kts 22°
2026-05-06 18:49 52.04857 21.21411 13704 ft 395 kts 22°
2026-05-06 18:50 52.07350 21.23226 13191 ft 391 kts 22°
2026-05-06 18:50 52.09827 21.25031 12661 ft 388 kts 22°
2026-05-06 18:50 52.12281 21.26822 12151 ft 384 kts 22°
2026-05-06 18:50 52.14713 21.28598 11639 ft 381 kts 22°
2026-05-06 18:51 52.17119 21.30358 11138 ft 378 kts 22°
2026-05-06 18:51 52.19511 21.32109 10654 ft 375 kts 22°
2026-05-06 18:51 52.21876 21.33844 10169 ft 372 kts 22°
2026-05-06 18:51 52.24235 21.35575 9694 ft 370 kts 22°
2026-05-06 18:52 52.26585 21.37300 8931 ft 373 kts 22°
2026-05-06 18:52 52.28975 21.39057 8168 ft 377 kts 22°
2026-05-06 18:52 52.31387 21.40792 7414 ft 378 kts 19°
2026-05-06 18:52 52.33913 21.41551 6658 ft 375 kts 355°
2026-05-06 18:53 52.36376 21.40469 6135 ft 362 kts 327°
2026-05-06 18:53 52.38296 21.38022 5965 ft 340 kts 312°
2026-05-06 18:53 52.39794 21.35051 5208 ft 339 kts 298°
2026-05-06 18:53 52.40780 21.31562 4505 ft 337 kts 287°
2026-05-06 18:54 52.41535 21.27930 3924 ft 335 kts 286°
2026-05-06 18:54 52.42263 21.24385 3741 ft 320 kts 286°
2026-05-06 18:54 52.42963 21.21003 3590 ft 306 kts 287°
2026-05-06 18:54 52.43637 21.17780 3507 ft 292 kts 287°
2026-05-06 18:55 52.44281 21.14714 3491 ft 277 kts 287°
2026-05-06 18:55 52.44894 21.11806 3485 ft 263 kts 287°
2026-05-06 18:55 52.45472 21.09075 3506 ft 244 kts 286°
2026-05-06 18:55 52.46005 21.06553 3434 ft 226 kts 286°
2026-05-06 18:56 52.46498 21.04221 3395 ft 205 kts 286°
2026-05-06 18:56 52.46941 21.02124 3380 ft 184 kts 286°
2026-05-06 18:56 52.47329 21.00290 3384 ft 158 kts 285°
2026-05-06 18:56 52.47673 20.98661 3384 ft 148 kts 285°
2026-05-06 18:57 52.47991 20.97083 3388 ft 147 kts 281°
2026-05-06 18:57 52.47939 20.95457 3412 ft 142 kts 254°
2026-05-06 18:57 52.47754 20.93840 3403 ft 145 kts 260°
2026-05-06 18:57 52.47609 20.92182 3258 ft 151 kts 260°
2026-05-06 18:58 52.47458 20.90486 3051 ft 146 kts 260°
2026-05-06 18:58 52.47310 20.88851 3008 ft 144 kts 260°
2026-05-06 18:58 52.47163 20.87243 3006 ft 143 kts 260°
2026-05-06 18:58 52.47014 20.85613 2918 ft 147 kts 260°
2026-05-06 18:59 52.46864 20.83956 2705 ft 146 kts 260°
2026-05-06 18:59 52.46716 20.82336 2484 ft 142 kts 261°
2026-05-06 18:59 52.46570 20.80733 2277 ft 143 kts 261°
2026-05-06 18:59 52.46422 20.79118 2047 ft 143 kts 261°
2026-05-06 19:00 52.46324 20.78052 1899 ft 142 kts 261°
2026-05-06 19:00 52.46176 20.76458 1686 ft 141 kts 261°
2026-05-06 19:00 52.46028 20.74860 1458 ft 142 kts 261°
2026-05-06 19:00 52.45835 20.73264 1221 ft 144 kts 262°
2026-05-06 19:01 52.45719 20.71598 1014 ft 150 kts 263°
2026-05-06 19:01 52.45584 20.69925 833 ft 150 kts 261°
2026-05-06 19:01 52.45403 20.68221 600 ft 153 kts 259°
2026-05-06 19:01 52.45254 20.66488 360 ft 152 kts 258°
2026-05-06 19:02 52.45111 20.65097 348 ft 87 kts 262°
2026-05-06 19:02 52.45026 20.64190 350 ft 64 kts 262°
2026-05-06 19:02 52.44976 20.63615 350 ft 28 kts 261°
2026-05-06 19:02 52.44913 20.63401 350 ft 17 kts 190°
2026-05-06 19:03 52.44797 20.63418 352 ft 16 kts 172°
2026-05-06 19:03 52.44747 20.63429 356 ft 0 kts 172°
2026-05-06 19:04 52.44724 20.63434 350 ft 7 kts 172°
2026-05-06 19:05 52.44655 20.63460 354 ft 13 kts 151°
2026-05-06 19:05 52.44638 20.63612 353 ft 16 kts 80°
2026-05-06 19:05 52.44644 20.63737 349 ft 11 kts 81°
2026-05-06 19:05 52.44659 20.63893 349 ft 17 kts 81°
2026-05-06 19:06 52.44682 20.64113 352 ft 22 kts 81°
2026-05-06 19:06 52.44709 20.64388 354 ft 27 kts 81°
2026-05-06 19:06 52.44740 20.64714 355 ft 31 kts 81°
2026-05-06 19:06 52.44771 20.65034 349 ft 24 kts 83°
2026-05-06 19:07 52.44763 20.65118 356 ft 2 kts 147°
2026-05-06 19:07 52.44745 20.65111 349 ft 5 kts 202°
2026-05-06 19:07 52.44731 20.65101 355 ft 0 kts 205°